BEIDOU 20

Last updated on Sept. 30, 2020, 5:50 a.m. UTC

1 40938U 15053A   20273.07209421 -.00000097  00000-0  00000+0 0  9993
2 40938  52.4634 283.0439 0048388 192.3154  12.1496  1.00294403 18437
UTC
Height (km)
Latitude
Longitude
Inclination
Orbital Period
UTC large
Height (km)
Speed (km/s)
/
Latitude / Longitude
Inclination (degrees)
Orbital Period (minutes)
Azimuth
Elevation
Range (km)
Doppler Factor
iOS Compass Heading
iOS Angle

Next 30 passes for location: Hong Kong

Rise time Rise Azimuth (degrees) Set time Set Azimuth (degrees) Duration Max altitude (degrees)

No matching passes for this satellites